Total_Precipitation_Accumulation
1.39 1.07 1.69 1.76 1.61 1.43 1.34 1.32 1.46 1.52 1.49 1.38 1.37 1.29 1.18 1.02 0.87 0.78 0.69 0.67 0.65 0.60 0.60 0.61 0.63 0.66 0.65 0.61 0.68 0.75 0.78 0.68 0.68 0.69 0.61 0.62 0.72 0.71 0.71 0.93 1.40 1.80 1.18
0.83 0.84 1.63 1.76 1.56 1.40 1.30 1.34 1.55 1.58 1.58 1.47 1.33 1.22 1.09 0.92 0.82 0.74 0.70 0.65 0.64 0.62 0.61 0.60 0.61 0.68 0.70 0.65 0.71 0.79 0.76 0.73 0.79 0.85 0.85 0.87 0.81 0.77 0.77 0.89 1.28 1.58 1.16
0.65 0.74 1.23 1.68 1.56 1.43 1.37 1.37 1.45 1.52 1.48 1.26 1.20 1.16 1.04 0.90 0.81 0.75 0.68 0.63 0.60 0.63 0.57 0.54 0.57 0.66 0.69 0.73 0.72 0.71 0.68 0.75 0.83 1.01 1.41 1.88 1.34 0.95 0.93 0.87 1.05 1.09 1.02
0.69 0.74 0.96 1.53 1.60 1.51 1.42 1.39 1.39 1.39 1.37 1.21 1.13 1.06 0.97 0.91 0.84 0.81 0.72 0.65 0.56 0.51 0.52 0.53 0.53 0.58 0.62 0.64 0.68 0.66 0.63 0.73 0.85 1.04 1.48 1.94 1.78 1.32 1.14 1.07 1.16 1.04 1.02
0.73 0.80 1.07 1.58 1.57 1.51 1.49 1.50 1.54 1.42 1.36 1.21 1.03 1.00 0.97 0.94 0.85 0.81 0.74 0.63 0.55 0.54 0.51 0.52 0.52 0.57 0.64 0.64 0.61 0.62 0.66 0.80 0.98 0.91 1.19 1.62 2.04 1.71 1.26 1.27 1.35 1.17 1.10
0.77 0.83 1.09 1.46 1.49 1.48 1.49 1.52 1.49 1.35 1.26 1.15 1.00 0.98 1.02 1.01 0.91 0.85 0.76 0.67 0.59 0.59 0.56 0.56 0.56 0.64 0.66 0.64 0.63 0.69 0.81 0.88 0.87 0.96 1.23 1.58 2.03 1.79 1.41 1.32 1.24 1.34 1.22
0.79 0.81 1.01 1.40 1.45 1.47 1.38 1.22 1.24 1.24 1.17 1.05 0.97 0.93 0.94 0.93 0.89 0.83 0.86 0.79 0.70 0.68 0.64 0.63 0.62 0.61 0.63 0.66 0.69 0.77 0.88 0.86 0.86 1.09 1.18 1.51 1.61 1.57 1.37 1.28 1.32 1.52 1.41
0.88 0.80 0.89 1.22 1.32 1.29 1.24 1.18 1.24 1.23 1.12 0.97 0.89 0.87 0.87 0.90 0.83 0.77 0.76 0.74 0.74 0.74 0.72 0.67 0.65 0.58 0.60 0.70 0.76 0.84 0.97 0.90 0.83 0.95 0.98 1.27 1.61 1.60 1.27 1.22 1.30 1.49 1.57
1.19 1.01 0.91 0.99 1.13 1.18 1.24 1.25 1.33 1.36 1.25 1.07 0.89 0.86 0.86 0.77 0.66 0.62 0.67 0.70 0.71 0.71 0.72 0.70 0.69 0.64 0.65 0.76 0.81 0.89 1.01 0.92 0.92 0.92 0.81 1.22 1.67 1.50 1.22 1.09 1.14 1.31 1.43
1.21 1.17 1.06 1.00 1.05 1.07 1.14 1.32 1.48 1.60 1.63 1.35 1.01 0.93 0.83 0.68 0.61 0.63 0.63 0.68 0.74 0.79 0.77 0.76 0.77 0.74 0.79 0.82 0.84 0.89 0.90 0.80 0.84 0.83 0.91 1.14 1.60 1.49 1.19 1.04 1.02 1.02 1.11
0.84 0.91 0.97 0.98 1.04 1.00 0.99 1.14 1.42 1.61 1.72 1.40 1.00 1.01 0.89 0.64 0.63 0.69 0.69 0.85 0.93 0.96 0.94 0.95 0.98 0.97 0.96 0.89 0.92 0.98 0.81 0.60 0.72 0.86 0.97 1.24 1.61 1.53 1.19 1.02 0.85 0.84 0.88
0.67 0.63 0.65 0.67 0.73 0.80 0.83 1.08 1.37 1.43 1.52 1.22 1.02 1.05 0.99 1.03 0.96 0.75 0.74 0.98 1.13 1.18 1.09 1.07 1.14 1.06 0.93 0.77 0.78 0.80 0.66 0.63 0.70 0.78 0.89 1.34 1.67 1.54 1.23 1.01 0.81 0.78 0.78
0.51 0.48 0.47 0.48 0.49 0.60 0.82 1.08 1.31 1.38 1.40 1.41 1.43 1.28 1.24 1.19 0.99 0.81 0.78 0.84 0.92 1.01 0.97 1.06 1.08 0.94 0.85 0.74 0.72 0.67 0.59 0.70 0.86 0.81 0.97 1.38 1.69 1.57 1.35 1.16 0.92 0.86 0.84
0.53 0.51 0.44 0.37 0.38 0.47 0.62 0.84 1.12 1.19 1.24 1.29 1.28 1.07 1.15 1.15 0.96 0.90 0.99 1.03 1.00 0.99 1.14 1.18 1.16 1.12 0.94 0.77 0.74 0.78 0.73 0.70 0.87 0.95 1.10 1.24 1.60 1.73 1.53 1.33 1.14 1.06 0.98
0.62 0.70 0.65 0.51 0.44 0.49 0.54 0.57 0.70 0.79 0.89 1.15 1.23 0.96 0.94 0.95 1.00 1.03 0.95 1.09 1.16 1.16 1.17 1.18 1.10 1.06 1.06 0.93 0.94 0.98 0.96 0.80 0.85 0.92 1.04 1.06 1.30 1.71 1.80 1.64 1.46 1.25 1.12
0.47 0.58 0.63 0.61 0.63 0.62 0.54 0.44 0.43 0.48 0.61 0.75 0.77 0.73 0.76 0.78 0.88 1.06 1.00 1.00 1.08 1.26 1.32 1.26 1.17 1.21 1.21 1.04 1.05 1.13 1.09 0.98 0.99 1.02 1.10 0.98 0.89 1.09 1.48 1.75 1.76 1.56 1.34
0.37 0.40 0.48 0.55 0.61 0.66 0.69 0.64 0.50 0.50 0.55 0.57 0.57 0.62 0.70 0.70 0.83 1.00 0.96 0.88 0.87 1.04 1.24 1.37 1.40 1.37 1.24 1.14 1.14 1.16 1.07 1.05 1.05 1.18 1.18 1.13 0.93 0.76 0.96 1.26 1.52 1.61 1.59
0.37 0.33 0.38 0.40 0.48 0.58 0.69 0.76 0.70 0.64 0.59 0.53 0.50 0.47 0.50 0.52 0.61 0.81 0.89 0.81 0.82 1.00 1.23 1.43 1.54 1.58 1.44 1.39 1.43 1.34 1.17 1.13 1.10 1.21 1.23 1.24 1.22 0.97 0.83 0.83 0.98 1.24 1.43
0.34 0.32 0.31 0.33 0.37 0.45 0.56 0.62 0.61 0.59 0.55 0.54 0.53 0.42 0.39 0.42 0.53 0.74 0.93 0.98 0.98 1.10 1.24 1.28 1.50 1.60 1.68 1.60 1.47 1.37 1.27 1.27 1.24 1.18 1.31 1.28 1.28 1.20 1.03 0.75 0.67 0.76 0.99
0.33 0.32 0.31 0.32 0.32 0.36 0.39 0.46 0.51 0.47 0.46 0.51 0.49 0.48 0.51 0.58 0.65 0.85 1.08 1.18 1.30 1.34 1.41 1.57 1.86 1.88 1.78 1.79 1.63 1.45 1.31 1.31 1.35 1.38 1.36 1.31 1.36 1.23 1.09 0.91 0.77 0.55 0.63
0.28 0.27 0.27 0.31 0.32 0.29 0.26 0.31 0.36 0.36 0.45 0.53 0.59 0.64 0.69 0.72 0.80 1.03 1.24 1.48 1.62 1.52 1.55 1.76 2.03 2.20 2.05 1.91 1.97 1.85 1.68 1.50 1.46 1.43 1.40 1.42 1.42 1.34 1.23 1.17 1.05 0.88 0.73
0.16 0.18 0.23 0.23 0.22 0.21 0.20 0.25 0.33 0.40 0.46 0.60 0.75 0.85 0.87 0.86 0.91 0.97 1.18 1.39 1.48 1.55 1.61 1.74 1.97 2.31 2.19 1.96 2.13 2.46 2.26 2.03 1.62 1.33 1.44 1.49 1.51 1.44 1.31 1.17 1.13 1.07 0.99
0.15 0.16 0.18 0.20 0.20 0.19 0.25 0.42 0.70 0.94 1.02 1.04 1.06 1.20 1.29 1.25 1.20 1.18 1.21 1.37 1.46 1.60 1.69 1.74 1.78 2.08 2.22 2.09 2.10 2.58 2.52 2.29 2.12 1.66 1.36 1.41 1.50 1.56 1.52 1.41 1.28 1.21 1.14
0.14 0.18 0.18 0.19 0.23 0.24 0.38 0.70 1.09 1.41 1.50 1.50 1.63 1.67 1.73 1.66 1.51 1.49 1.49 1.59 1.56 1.54 1.56 1.59 1.59 1.80 2.16 2.26 2.12 1.99 1.97 2.03 2.32 2.05 1.54 1.39 1.41 1.42 1.52 1.42 1.44 1.43 1.44
0.20 0.24 0.27 0.31 0.42 0.55 0.68 0.84 1.14 1.34 1.45 1.59 1.76 1.90 2.03 2.13 2.09 2.01 1.94 1.81 1.64 1.56 1.59 1.64 1.64 1.73 1.86 2.03 2.00 1.89 1.89 1.84 1.71 1.87 1.83 1.61 1.42 1.32 1.40 1.44 1.48 1.50 1.58
0.33 0.37 0.41 0.50 0.58 0.64 0.73 0.84 0.99 1.08 1.24 1.44 1.60 1.77 1.93 2.04 2.05 1.99 1.86 1.65 1.49 1.43 1.50 1.64 1.67 1.72 1.71 1.80 1.77 1.69 1.71 1.69 1.60 1.75 1.72 1.73 1.70 1.36 1.25 1.30 1.37 1.43 1.42